Flag for Germany Weather past 2 weeks in Dillenburg, Hesse, Germany

Now
66 °F

Scattered clouds.


Feels Like: 66 °F
Forecast: 53 / 72 °F
Wind: 10 mph from Southeast

Location: Hessen

Current Time: Sep 16, 2014 at 5:37:36 PM

Latest Report: Sep 16, 2014 at 4:50 PM


Visibility: N/A

Pressure: 30.01 "Hg

Humidity: 73%

Dew point: 57 °F

Location of DillenburgLocation

Historic Weather in Dillenburg — Graph

°F

Dillenburg temperature yesterday

Maximum temperature yesterday: 63 °F (at 4:20 PM)
Minimum temperature yesterday: 55 °F (at 7:20 AM)
Average temperature yesterday: 58 °F

Past Weeks' High & Low Weather Summary

 TemperatureHumidityPressure
High73 °F (Sep 6, 1:50 PM)100% (Sep 1, 9:20 PM)30.24 "Hg (Sep 1, 9:20 PM)
Low48 °F (Sep 9, 7:20 AM)56% (Sep 6, 10:50 AM)29.95 "Hg (Sep 6, 7:50 AM)
Average58 °F87%30.09 "Hg
* Reported Sep 1 4:20 PM — Sep 16 4:20 PM, Dillenburg, Weather by CustomWeather, © 2014

Note: Actual official high and low records may vary slightly from our data, if they occured in-between our weather recording intervals... More about our weather records

Advertising

Dillenburg weather history for previous 24 hours

 ConditionsComfort  
Time TempWeatherWind HumidityBarometerVisibility
4:20 PM
Sep 16
68 °FScattered clouds.6 mph69%30.01 "HgN/A
3:50 PM64 °FScattered clouds.10 mph78%30.01 "HgN/A
3:20 PM66 °FScattered clouds.13 mph68%30.01 "HgN/A
2:50 PM64 °FScattered clouds.13 mph73%30.04 "HgN/A
2:20 PM64 °FScattered clouds.13 mph73%30.04 "HgN/A
1:50 PM64 °FScattered clouds.13 mph83%30.04 "HgN/A
1:20 PM64 °FScattered clouds.13 mph78%30.04 "HgN/A
12:50 PM63 °FBroken clouds.13 mph83%30.04 "HgN/A
12:20 PM63 °FBroken clouds.15 mph88%30.04 "HgN/A
11:50 AM61 °FPartly sunny.12 mph94%30.04 "Hg4 mi
11:20 AM61 °FBroken clouds.12 mph94%30.04 "Hg4 mi
10:50 AM59 °FFog.12 mph100%30.04 "Hg3 mi
10:20 AM57 °FFog.15 mph100%30.04 "Hg2 mi
9:50 AM57 °FFog.9 mph100%30.04 "Hg1 mi
9:20 AM57 °FCool.9 mph100%30.04 "Hg1 mi
8:50 AM57 °FFog.7 mph100%30.04 "Hg0 mi
8:20 AM55 °FFog.8 mph100%30.04 "Hg0 mi
7:50 AM57 °FFog.6 mph100%30.04 "Hg0 mi
9:50 PM
Sep 15
59 °FPartly cloudy.6 mph100%30.04 "Hg4 mi
9:20 PM59 °FPartly cloudy.6 mph100%30.07 "Hg4 mi
8:50 PM57 °FOvercast.6 mph100%30.04 "Hg5 mi
8:20 PM59 °FOvercast.5 mph100%30.04 "HgN/A
7:50 PM59 °FOvercast.5 mph100%30.04 "HgN/A
7:20 PM59 °FOvercast.6 mph100%30.04 "HgN/A
6:50 PM59 °FMore clouds than sun.5 mph100%30.04 "HgN/A
6:20 PM59 °FLow clouds.6 mph100%30.04 "HgN/A
5:50 PM59 °FBroken clouds.6 mph100%30.04 "HgN/A
5:20 PM59 °FBroken clouds.7 mph100%30.04 "HgN/A
Weather by CustomWeather, © 2014

See weather overviewHow to use our weather pages